RH
16 16 18 22 24 25 28 50 55 46 53 61 60 56 54 37 31 25 26 27 30 39 48 77 83 82 90 94 95 88 84 90 83 89 92 96 77 71 83 89 70 68 100
23 18 17 22 30 37 35 31 33 30 24 33 66 57 59 63 56 51 48 40 48 42 49 49 56 55 61 78 92 87 83 85 79 77 84 86 74 81 85 90 56 62 88
34 28 21 21 24 33 45 40 36 37 36 28 33 68 57 49 51 48 58 61 70 61 67 72 70 66 75 78 79 72 77 85 84 80 85 86 86 85 98 89 70 87 91
47 48 34 28 29 30 36 47 46 47 47 35 32 28 29 36 38 36 39 38 44 50 45 44 51 62 81 75 82 85 83 96 96 98 97 92 96 100 99 94 95 95 100
35 46 62 48 48 44 39 43 55 58 60 51 46 47 45 39 33 46 61 60 55 45 43 50 59 64 84 86 79 85 86 85 97 95 98 96 94 100 95 84 70 99 99
48 45 54 62 66 66 68 71 70 72 63 60 53 57 62 67 69 74 72 68 60 53 55 49 40 56 66 63 86 69 70 83 89 86 82 87 99 92 92 69 41 56 97
88 83 72 57 53 55 60 68 65 64 64 62 64 74 80 77 75 86 87 76 47 54 54 62 55 48 67 86 98 94 87 95 98 98 88 73 77 70 90 55 41 97 100
99 95 95 84 73 73 72 56 56 64 66 59 56 70 75 83 80 88 94 64 45 38 50 50 44 60 68 73 97 98 86 74 70 71 70 59 52 48 41 97 76 25 35
55 87 90 80 78 81 80 66 70 68 51 72 70 78 60 65 76 89 99 66 48 39 33 45 48 40 36 42 57 71 60 52 46 38 37 40 68 29 40 61 81 35 96
26 24 61 62 80 98 93 86 83 95 80 94 73 97 95 91 64 74 100 94 70 55 45 45 54 55 50 52 54 46 42 44 46 47 48 48 51 64 76 88 74 65 100
25 22 13 25 44 65 77 92 95 90 95 94 91 95 98 95 98 100 98 96 93 95 86 88 86 92 73 63 71 77 80 80 74 71 87 78 98 87 69 70 88 99 88
22 23 18 12 13 33 64 89 100 94 86 84 87 80 85 94 92 92 87 99 83 84 74 72 69 93 100 99 99 96 92 86 97 79 76 74 73 92 91 97 100 100 100
37 35 33 22 14 15 59 72 82 100 100 99 96 98 97 97 100 98 80 95 100 94 69 63 61 66 97 98 96 100 96 90 85 85 93 97 100 99 98 100 100 100 100
48 49 52 60 66 47 58 81 88 97 99 100 100 95 98 92 84 86 88 84 100 96 100 76 100 94 83 97 98 98 99 100 100 100 100 100 100 100 100 100 100 100 100
28 38 50 57 60 80 86 80 91 98 95 86 93 88 99 94 90 92 91 99 93 86 97 98 99 96 97 97 99 100 100 97 99 100 98 94 100 100 100 100 99 98 98
12 13 30 69 56 53 64 70 78 74 86 100 88 76 90 98 94 96 97 83 87 88 100 94 85 100 100 98 100 97 95 95 99 95 100 100 100 100 100 100 100 100 96
11 10 11 11 43 38 61 60 87 100 100 61 78 100 83 95 84 76 98 99 84 61 86 100 98 98 99 99 100 99 100 100 100 100 100 100 100 100 100 100 98 88 76
11 10 9 8 9 11 20 41 62 89 96 100 100 98 100 97 98 98 100 96 98 100 97 100 100 100 100 100 100 100 100 100 100 100 100 100 100 100 96 87 75 68 71
11 10 10 10 10 17 28 23 36 88 84 95 100 99 100 100 100 100 99 100 100 100 99 100 100 100 100 100 100 100 100 100 100 100 100 99 93 86 75 77 81 77 73
14 16 20 35 51 79 88 92 82 87 89 88 100 100 100 100 100 100 100 100 100 100 100 99 100 100 100 100 100 100 100 100 96 96 89 86 84 84 82 77 69 59 51
36 88 91 100 100 92 99 98 88 85 89 78 91 98 100 100 98 95 94 97 100 100 99 99 100 100 100 100 99 98 94 86 88 91 88 81 78 74 62 54 41 29 19
82 96 100 90 84 96 100 100 91 86 94 94 95 100 100 98 98 100 97 96 98 98 96 95 92 92 91 92 94 90 84 78 76 75 72 64 56 47 35 21 10 7 6
100 100 100 100 98 94 92 97 99 100 100 100 100 100 98 95 94 91 94 93 90 86 84 83 81 77 74 72 72 72 71 67 60 53 46 33 18 10 7 6 6 6 6
100 100 100 100 100 100 100 100 100 100 100 100 96 94 97 99 93 86 82 80 76 75 75 76 76 75 70 68 66 61 52 40 26 15 10 8 7 6 6 6 7 8 9
100 100 100 100 100 100 100 100 100 100 100 99 97 92 91 91 88 86 85 84 82 78 73 68 62 52 42 30 20 12 8 8 8 8 8 7 8 8 9 9 11 12 15
100 100 100 100 100 100 100 100 100 100 99 96 90 87 90 89 83 78 71 62 47 35 23 15 12 10 10 9 10 10 10 10 9 9 9 9 10 12 13 14 18 23 27
Wind_Speed
16 15 11 9 7 7 7 6 5 5 7 8 8 9 10 13 14 16 17 17 17 19 21 23 26 29 28 29 32 33 32 33 36 33 36 37 38 40 42 45 46 44 45
19 18 17 14 12 10 12 11 10 9 9 10 11 11 11 14 14 15 17 19 17 18 21 24 26 31 33 32 34 34 35 37 39 43 44 43 41 42 43 43 41 35 35
21 21 21 20 18 16 16 16 15 14 14 14 13 14 13 13 13 15 16 18 20 20 22 26 29 32 30 32 34 37 36 41 46 49 50 51 46 45 45 44 38 37 39
21 23 25 26 25 24 21 19 18 19 17 17 18 18 17 17 17 18 19 21 23 24 25 26 26 28 33 37 38 36 37 38 39 41 43 49 42 41 46 45 42 43 44
30 27 28 30 30 27 25 25 24 22 22 22 22 20 21 22 23 24 27 28 29 30 32 32 31 31 28 35 40 41 42 41 41 41 42 47 44 44 49 47 44 44 50
31 30 29 29 27 26 26 27 28 27 26 25 26 26 25 25 27 30 32 34 35 37 37 37 37 37 36 36 39 40 41 41 44 47 46 47 47 48 50 49 47 49 52
30 31 33 34 34 33 33 32 31 32 31 28 31 30 30 29 29 31 34 36 36 36 38 40 40 40 40 41 43 45 46 45 46 49 50 50 50 50 50 53 52 50 59
33 38 39 41 41 39 38 35 35 35 33 34 35 37 37 32 33 34 35 38 36 35 37 38 41 43 43 46 48 48 50 50 52 52 53 53 52 54 56 56 55 61 61
33 34 37 40 42 43 40 38 38 40 39 36 37 38 40 40 38 36 38 40 37 35 36 37 39 40 42 45 48 51 53 53 54 56 57 57 55 60 58 61 61 65 70
41 41 40 40 41 43 46 46 45 47 45 43 43 42 44 42 46 43 44 45 43 38 38 40 42 43 43 45 47 50 54 55 57 59 60 60 61 60 61 61 68 68 70
48 49 48 45 44 46 46 49 52 50 52 50 49 47 50 49 48 48 54 50 49 48 46 46 47 49 49 50 53 55 55 52 56 57 58 59 58 63 65 63 68 68 74
50 53 55 53 52 49 49 48 51 55 55 55 52 54 52 54 56 58 56 56 53 53 54 54 55 56 59 61 59 57 57 57 55 66 64 69 68 68 68 66 70 76 79
50 54 56 57 58 58 53 54 53 53 59 61 58 59 60 62 63 62 57 61 62 61 60 60 59 65 69 75 62 68 61 67 69 68 74 77 68 73 72 74 79 83 79
50 53 55 58 60 62 62 62 62 63 63 58 60 58 62 63 59 60 62 59 61 71 63 62 66 72 75 73 68 75 68 67 64 72 78 80 76 75 74 82 88 79 70
41 48 54 57 61 61 60 63 63 61 65 61 65 63 66 68 64 66 64 67 65 64 74 73 65 75 85 80 74 63 70 61 69 69 77 75 74 74 73 68 67 70 73
38 40 44 44 50 63 64 60 58 65 65 62 63 65 63 61 60 58 64 68 63 64 68 71 71 68 66 59 57 66 74 75 78 73 66 68 67 63 64 67 71 75 79
45 45 45 46 47 46 55 65 65 53 56 63 64 63 69 65 62 63 63 73 73 64 71 62 58 59 62 73 77 80 73 62 64 62 62 64 67 70 74 77 80 85 89
51 51 51 52 50 48 51 51 59 79 45 63 50 50 48 55 63 53 54 49 56 48 58 57 63 70 73 73 70 61 57 59 62 64 65 69 73 78 81 86 90 92 93
57 57 56 55 54 50 45 49 53 47 49 50 47 47 37 56 65 63 50 49 47 44 44 44 48 51 53 55 56 57 61 62 64 68 72 77 81 85 88 90 91 91 90
56 55 54 49 46 45 44 44 43 41 36 38 43 46 47 45 43 46 46 46 47 46 48 48 49 52 56 58 60 62 63 67 71 77 81 86 88 88 87 87 88 91 94
52 45 44 42 41 41 41 41 41 40 37 37 39 42 39 43 44 47 46 46 47 47 49 51 52 56 58 61 64 68 72 75 78 81 83 83 83 84 88 91 94 97 98
45 44 48 50 47 44 43 44 44 44 44 42 43 45 44 45 46 48 50 51 52 53 56 58 60 63 65 68 71 74 76 77 78 79 81 84 87 90 93 94 95 94 93
45 44 46 48 46 46 49 47 46 46 47 46 46 46 46 47 48 52 55 57 58 60 62 63 64 67 70 71 71 72 74 77 80 82 85 87 87 87 88 88 85 82 80
35 37 38 39 42 44 45 46 47 48 48 48 48 49 50 50 51 53 55 55 57 59 60 62 64 66 68 70 72 75 78 80 82 81 80 81 79 76 76 75 73 71 68
37 37 38 40 41 42 43 44 45 46 48 49 49 49 49 50 51 51 53 54 56 58 61 64 67 69 72 73 75 75 75 73 70 68 68 68 68 67 66 65 62 58 51
41 40 40 40 41 41 43 44 45 46 47 48 50 51 52 53 55 57 60 62 63 65 66 68 69 68 65 62 60 59 59 59 61 62 63 62 61 59 57 53 47 41 38
Wind_Direction
240 240 238 244 253 271 287 275 259 265 265 258 250 252 260 260 255 254 250 249 249 247 242 231 238 239 238 240 244 246 254 261 265 262 265 275 281 283 278 279 284 286 278
244 244 244 245 245 253 266 267 274 284 276 271 254 255 245 245 259 259 259 259 260 259 256 254 250 249 248 247 250 255 258 258 264 268 268 274 283 281 284 285 288 288 282
243 249 249 249 253 259 260 263 264 273 283 279 266 256 256 261 263 265 265 265 259 258 256 254 253 256 256 253 253 259 265 268 266 269 275 279 276 281 285 283 288 286 284
236 248 251 253 257 262 262 263 266 272 278 266 272 276 272 267 266 268 272 275 271 267 262 261 262 265 259 255 258 263 274 268 271 272 277 280 273 278 284 284 284 292 283
247 245 244 250 257 258 263 265 266 273 274 267 268 270 273 277 274 273 281 282 275 270 268 266 265 264 264 258 255 262 270 273 271 274 275 275 274 275 279 283 283 287 289
254 257 248 242 247 253 257 260 263 271 272 265 262 263 266 277 276 283 284 284 280 270 267 269 269 267 267 265 259 264 266 270 272 275 275 275 276 278 279 285 286 291 284
261 262 265 261 260 258 260 261 262 265 265 262 263 263 269 273 276 281 285 287 285 277 273 269 270 271 270 270 270 271 271 270 275 278 280 283 284 285 286 289 292 280 285
254 251 255 261 263 262 263 263 266 264 261 262 262 266 267 271 274 280 283 284 284 281 277 273 273 270 269 271 273 273 276 279 279 281 282 284 285 286 288 285 289 288 284
263 260 261 263 267 272 271 267 262 264 264 266 263 264 270 271 273 274 276 279 282 280 278 274 273 274 271 271 271 273 276 279 280 282 283 284 287 286 287 275 285 288 290
263 260 259 260 262 264 266 267 266 261 262 263 263 265 268 272 274 268 268 274 273 276 276 275 275 274 272 270 270 270 272 275 281 283 283 283 278 284 284 280 288 288 287
259 262 262 258 257 260 262 265 267 269 265 263 260 265 269 269 272 271 275 269 269 272 274 276 281 280 277 275 274 275 277 281 287 290 283 286 275 283 281 283 287 284 287
253 256 259 260 259 257 260 263 265 268 271 273 268 265 265 263 262 265 270 276 270 268 268 270 272 277 279 278 275 274 276 283 277 283 286 289 281 279 282 282 279 283 284
253 254 256 256 255 255 256 258 261 263 266 271 272 274 274 274 274 269 266 269 272 270 269 273 275 276 276 279 277 273 267 278 283 283 287 287 277 276 282 274 283 285 283
258 257 257 259 260 258 256 256 259 262 262 263 266 270 273 273 274 274 270 266 276 266 269 274 265 271 272 266 267 275 266 273 261 263 277 281 279 279 279 275 275 279 280
266 264 263 259 261 263 263 262 263 266 269 268 265 267 272 263 267 270 268 269 274 270 265 263 282 287 258 275 263 271 257 268 279 274 284 281 275 275 276 276 279 285 288
279 278 274 275 273 264 263 263 264 266 268 267 265 266 270 265 269 270 269 272 271 269 274 278 274 272 268 268 272 277 281 286 287 281 276 273 273 278 285 288 292 293 294
283 284 282 282 273 279 274 269 264 263 257 265 265 271 265 271 268 271 270 267 264 265 274 264 260 260 273 280 282 284 282 278 278 272 273 278 281 286 288 289 290 292 294
283 284 284 282 281 279 276 281 273 270 252 273 259 259 244 257 266 263 260 271 265 260 255 261 267 273 278 278 279 278 273 275 276 276 278 281 281 284 288 292 293 293 293
283 283 282 279 277 278 275 275 277 286 285 285 267 267 261 262 263 265 270 270 269 270 277 279 276 275 275 274 277 282 285 281 276 276 278 281 288 291 291 291 292 294 295
279 279 280 279 277 276 274 275 276 282 282 277 269 266 271 269 266 269 269 272 277 279 284 283 284 283 281 281 280 281 282 284 283 285 287 288 290 292 293 294 295 296 296
276 273 275 273 269 271 269 268 269 270 270 272 276 274 275 276 280 276 283 283 281 279 278 279 280 282 283 284 285 286 287 288 287 287 289 292 294 294 296 297 297 298 298
271 272 271 275 278 275 273 272 271 272 272 272 270 270 272 272 274 276 277 276 279 284 284 284 284 286 286 286 287 288 289 290 291 292 293 294 295 296 297 298 298 299 300
270 266 264 269 271 272 274 275 275 276 278 278 279 278 279 280 281 281 281 282 285 285 285 286 286 286 287 288 289 290 290 291 292 293 294 295 297 298 299 300 301 301 303
276 269 267 270 271 273 275 276 277 278 279 281 282 282 281 282 282 281 282 283 284 286 286 286 287 287 288 290 291 292 293 294 295 296 297 299 300 300 301 303 304 304 306
282 280 277 276 276 275 276 277 278 278 279 280 281 282 284 285 285 286 288 288 288 288 288 288 289 291 291 293 294 294 295 296 298 299 300 301 303 304 305 305 307 308 310
280 279 278 278 277 277 277 278 279 280 282 283 284 286 287 288 290 292 292 292 292 293 294 294 295 295 294 295 297 298 300 301 303 305 306 306 306 306 307 309 310 312 315